Location: downtown San Diego
(32.7310°N, 117.1990°W)
Time: 19:21:29
(UTC-08:00)

Daily predictions for brighter satellites

Satellite Brightness Start Highest point End
(mag) Time Altitude Azimuth Time Altitude Azimuth Time Altitude Azimuth
USA 234 4.0 16:57:42 10° NNE 17:03:55 49° NW 17:10:09 10° WSW
Cosmos 2151 3.5 17:00:44 10° N 17:04:44 38° E 17:08:42 10° SSE
Cosmos 2219 3.8 17:03:36 10° SSW 17:09:06 59° WNW 17:14:39 10° NNE
Cosmos 405 Rocket 3.7 17:14:28 10° SSW 17:18:04 49° W 17:21:46 10° N
NOSS 2-1 (C) 4.1 17:14:05 10° NNW 17:18:49 75° ENE 17:25:39 10° SE
Helios 1B rocket 3.7 17:15:45 10° S 17:19:29 43° W 17:23:15 10° NNW
Cosmos 1666 3.5 17:18:09 10° NNE 17:21:09 26° E 17:24:09 10° SE
CZ-4B R/B 4.1 17:16:33 10° SE 17:21:12 35° ENE 17:25:46 10° N
CZ-4B R/B 3.5 17:18:24 10° SSE 17:21:59 65° ENE 17:25:32 10° N
SMAP 3.1 17:21:13 10° SSE 17:25:51 89° ENE 17:30:31 10° NNW
NOSS 2-1 (D) 4.3 17:21:06 10° NNW 17:26:08 80° ENE 17:33:31 10° SSE
AQUARIUS 4.1 17:21:45 10° SSE 17:26:09 67° ENE 17:30:35 10° N
Cosmos 2082 4.0 17:22:04 10° SSW 17:27:38 70° WNW 17:33:15 10° NNE
Cosmos 1544 2.7 17:25:24 10° N 17:28:39 86° E 17:31:53 10° S
Cosmos 1953 Rocket 4.2 17:25:32 10° NNW 17:29:55 62° W 17:34:15 10° S
Cosmos 1437 Rocket 2.6 17:29:02 10° N 17:32:45 88° W 17:36:31 10° S
Cosmos 1076 Rocket 3.4 17:28:42 10° N 17:33:03 72° E 17:37:22 10° SSE
Radarsat Rocket 4.4 17:29:37 10° SE 17:34:55 36° ENE 17:40:12 10° N
Aureole 3 Rocket 4.4 17:32:28 10° NNW 17:36:29 37° W 17:39:40 10° SSW
Cosmos 1269 Rocket 4.0 17:36:44 10° N 17:42:00 67° ENE 17:47:14 10° SSE
Cosmos 2237 Rocket 4.5 17:37:41 10° NW 17:42:23 28° WSW 17:47:05 10° SSW
USA 276 3.3 17:42:57 10° W 17:45:01 24° NW 17:46:22 16° N
COSMO-SKYMED 1 2.5 17:43:46 10° NNE 17:48:07 74° ESE 17:52:26 10° S
Meteor 1-31 Rocket 3.8 17:47:15 10° S 17:50:47 45° W 17:54:21 10° NNW
Cosmos 1500 3.3 17:48:37 10° NNW 17:52:06 66° W 17:55:35 10° S
Tiangong -1.4 17:50:23 10° NW 17:53:21 36° NNE 17:53:59 32° NE
Cosmos 1782 3.3 17:51:45 10° SSE 17:55:18 34° E 17:56:32 27° NE
Meteor 1-20 Rocket 4.4 17:50:34 10° N 17:55:54 45° ENE 18:01:17 10° SSE
Cosmos 1812 2.5 17:52:26 10° S 17:56:06 87° E 17:59:47 10° N
SEDSat Delta rocket 3.9 17:52:14 10° SW 17:57:08 44° SSE 17:59:34 24° ESE
Cosmos 2227 4.2 17:51:38 10° S 17:57:20 71° ESE 18:02:42 12° NNE
Cosmos 2263 Rocket 3.6 18:00:37 10° SW 18:05:41 36° WNW 18:10:47 10° N
Cosmos 2084 Rocket 3.4 18:02:20 10° NW 18:06:07 69° WSW 18:09:57 10° SSE
Cosmos 1844 Rocket 3.1 18:02:42 10° S 18:07:47 38° ESE 18:09:29 31° ENE
APEX 2.6 18:06:24 10° SSW 18:09:48 83° WNW 18:10:34 48° NNE
Meteor 2-2 Rocket 4.2 18:06:23 10° S 18:12:03 84° E 18:17:51 10° N
Cosmos 2026 Rocket 3.9 18:07:25 10° S 18:13:29 64° E 18:19:42 10° NNE
Meteosat 1 Rocket2 4.1 18:09:51 10° WSW 18:14:28 52° S 18:17:37 28° ESE
Cosmos-2242 4.0 18:13:32 10° SSW 18:17:43 47° W 18:21:54 10° N
Cosmos 2195 Rocket 4.4 18:12:46 10° S 18:19:06 87° E 18:25:27 10° N
Cosmos 1092 Rocket 3.8 18:18:19 10° S 18:24:28 83° E 18:30:37 10° N
SL-08 R/B 3.8 18:20:56 10° N 18:25:27 59° WNW 18:30:00 10° SSW
YAOGAN 3 4.4 18:21:35 10° SSE 18:25:50 62° ENE 18:30:05 10° N
Cosmos 2221 3.7 18:23:37 10° SSE 18:25:50 28° SSE 18:25:50 28° SSE
CZ-2C R/B 2.7 18:26:32 10° WNW 18:27:26 19° WNW 18:27:26 19° WNW
Hubble Space Telescope 1.9 18:28:01 10° WSW 18:31:39 33° SSW 18:32:23 30° S
Cosmos 1933 3.3 18:30:18 10° S 18:34:17 78° W 18:34:51 63° NNW
SL-16 R/B 3.8 18:30:22 10° NW 18:35:27 35° WSW 18:40:31 10° SSW
Cosmos 1140 Rocket 3.3 18:31:13 10° N 18:36:21 66° ENE 18:37:01 59° ESE
ATLAS CENTAUR R/B 3.8 18:30:58 10° NNW 18:36:32 43° NE 18:37:40 41° ENE
Lacrosse 5 1.7 18:37:40 10° SW 18:42:43 88° NW 18:43:10 75° NNE
CZ-4B DEB 4.5 18:37:28 10° SSE 18:44:04 50° NNE 18:48:22 10° N
NOAA 15 4.4 18:38:01 10° SSE 18:43:17 73° ENE 18:48:35 10° N
Cosmos 44 3.5 18:38:00 10° NNW 18:43:18 75° WSW 18:45:58 28° SSE
Meteor 2-9 4.5 18:40:35 10° N 18:46:01 90° W 18:51:30 10° S
Cosmos 1943 3.0 18:45:46 10° NNW 18:51:25 81° ENE 18:51:47 76° ESE
Cosmos 2251 Rocket 4.4 18:51:52 10° NNW 18:55:06 38° N 18:55:06 38° N
SME Rocket 3.8 19:03:41 71° NW 19:03:41 71° NW 19:09:35 10° NNW
Meteor 1-26 Rocket 4.3 18:58:45 10° SSW 19:04:09 68° W 19:05:01 58° NNW
Cosmos 1844 3.8 18:58:42 10° SSW 19:04:28 75° WNW 19:04:45 73° NW
Cosmos 2056 Rocket 3.7 18:59:55 10° SSW 19:04:41 69° WSW 19:04:41 69° WSW
H-2A R/B 2.8 19:02:25 10° W 19:06:36 63° S 19:08:01 53° SE
Timation 2 Rocket 4.3 19:07:58 10° SW 19:13:50 58° WNW 19:14:35 54° NW
COSMOS 2455 4.4 19:19:45 10° SSW 19:22:05 25° S 19:22:05 25° S
